This is the latest recevied weather packets stored in our database for station/object WA0GMH-1. If no packets are shown the sender has not sent any weather packets the latest 10 day(s).
| Time | Temp. | Humidity | Pressure | Rain* | Wind** | Luminosity | Snow |
|---|---|---|---|---|---|---|---|
| 1777840265 | 24.44° C | 70% | 1010.7 hPa | 0 mm | - | - | - |
| 1777839863 | 24.44° C | 70% | 1010.6 hPa | 0 mm | - | - | - |
| 1777839460 | 23.89° C | 69% | 1010.6 hPa | 0 mm | - | - | - |
| 1777839059 | 23.89° C | 70% | 1010.7 hPa | 0 mm | - | - | - |
| 1777838656 | 23.89° C | 70% | 1010.8 hPa | 0 mm | - | - | - |
| 1777838254 | 23.33° C | 70% | 1011 hPa | 0 mm | - | - | - |
| 1777837851 | 23.33° C | 70% | 1011.1 hPa | 0 mm | - | - | - |
| 1777837450 | 23.33° C | 71% | 1011 hPa | 0 mm | - | - | - |
| 1777837047 | 23.33° C | 70% | 1011.2 hPa | 0 mm | - | - | - |
| 1777836645 | 23.33° C | 70% | 1011.2 hPa | 0 mm | - | - | - |
| 1777836242 | 23.33° C | 70% | 1011.4 hPa | 0 mm | - | - | - |
| 1777835841 | 23.33° C | 72% | 1011.4 hPa | 0 mm | - | - | - |
| 1777835438 | 22.78° C | 72% | 1011.5 hPa | 0 mm | - | - | - |
| 1777835036 | 22.78° C | 72% | 1011.6 hPa | 0 mm | - | - | - |
| 1777834633 | 22.78° C | 72% | 1011.7 hPa | 0 mm | - | - | - |
| 1777834232 | 22.78° C | 75% | 1011.9 hPa | 0 mm | - | - | - |
| 1777833829 | 22.22° C | 73% | 1012.1 hPa | 0 mm | - | - | - |
| 1777833427 | 22.22° C | 75% | 1011.8 hPa | 0 mm | - | - | - |
| 1777833024 | 22.22° C | 78% | 1011.9 hPa | 0 mm | - | - | - |
| 1777832623 | 21.67° C | 79% | 1012.1 hPa | 0 mm | - | - | - |
| 1777832220 | 21.11° C | 78% | 1012.1 hPa | 0 mm | - | - | - |
| 1777831818 | 21.11° C | 79% | 1012.3 hPa | 0 mm | - | - | - |
| 1777831415 | 21.11° C | 80% | 1012.3 hPa | 0 mm | - | - | - |
| 1777831014 | 20.56° C | 79% | 1012.5 hPa | 0 mm | - | - | - |
| 1777830611 | 20.56° C | 81% | 1012.6 hPa | 0 mm | - | - | - |
* Rain since midnight (hover to see other rain measurements)
** Current wind speed in m/s (hover to see current wind gust speed)